This is the latest recevied weather packets stored in our database for station/object KC0UFP. If no packets are shown the sender has not sent any weather packets the latest 10 day(s).
| Time | Temp. | Humidity | Pressure | Rain* | Wind** | Luminosity | Snow |
|---|---|---|---|---|---|---|---|
| 1778005804 | 17.78° C | 92% | 1007.2 hPa | 0 mm | - | 82 W/m² | - |
| 1778005501 | 17.78° C | 92% | 1007.1 hPa | 0 mm | - | 72 W/m² | - |
| 1778005197 | 17.78° C | 92% | 1007.3 hPa | 0 mm | - | 69 W/m² | - |
| 1778004894 | 17.78° C | 92% | 1007.3 hPa | 0 mm | - | 76 W/m² | - |
| 1778004591 | 17.78° C | 92% | 1007.4 hPa | 0 mm | - | 79 W/m² | - |
| 1778004287 | 17.78° C | 92% | 1007.5 hPa | 0 mm | - | 90 W/m² | - |
| 1778003984 | 17.78° C | 92% | 1007.6 hPa | 0 mm | - | 104 W/m² | - |
| 1778003680 | 17.22° C | 94% | 1007.5 hPa | 0 mm | - | 92 W/m² | - |
| 1778003377 | 17.22° C | 95% | 1007.6 hPa | 0 mm | - | 88 W/m² | - |
| 1778003074 | 17.22° C | 94% | 1007.7 hPa | 0 mm | - | 98 W/m² | - |
| 1778002770 | 17.22° C | 94% | 1008 hPa | 0 mm | - | 114 W/m² | - |
| 1778002467 | 17.78° C | 94% | 1007.9 hPa | 0 mm | - | 74 W/m² | - |
| 1778002164 | 17.78° C | 92% | 1007.8 hPa | 0 mm | - | 99 W/m² | - |
| 1778001862 | 17.78° C | 91% | 1007.8 hPa | 0 mm | - | 93 W/m² | - |
| 1778001561 | 17.78° C | 91% | 1007.9 hPa | 0 mm | - | 90 W/m² | - |
| 1778001259 | 18.33° C | 91% | 1008.1 hPa | 0 mm | - | 94 W/m² | - |
| 1778000955 | 18.33° C | 91% | 1008 hPa | 0 mm | - | 153 W/m² | - |
| 1778000651 | 18.33° C | 91% | 1008 hPa | 0 mm | - | 127 W/m² | - |
| 1778000347 | 18.33° C | 92% | 1008 hPa | 0 mm | - | 124 W/m² | - |
| 1778000043 | 18.33° C | 92% | 1007.9 hPa | 0 mm | - | 98 W/m² | - |
| 1777999738 | 18.33° C | 92% | 1008 hPa | 0 mm | - | 127 W/m² | - |
| 1777999435 | 18.33° C | 92% | 1007.9 hPa | 0 mm | - | 118 W/m² | - |
| 1777999134 | 17.78° C | 92% | 1008.4 hPa | 0 mm | - | 134 W/m² | - |
| 1777998833 | 17.78° C | 92% | 1008.2 hPa | 0 mm | - | 120 W/m² | - |
| 1777998530 | 17.78° C | 91% | 1008.3 hPa | 0 mm | - | 140 W/m² | - |
* Rain latest hour (hover to see other rain measurements)
** Current wind speed in m/s (hover to see current wind gust speed)